Weather History for Douglas, WY

Change the Weather History Date:

Monday, May 27, 2013

  Actual Average Record
Temperature  
Mean Temperature 62 °F 57 °F  
Max Temperature 81 °F 72 °F 89 °F (2006)
Min Temperature 43 °F 42 °F 34 °F (2011)
Degree Days  
Heating Degree Days 3 8  
Month to date heating degree days 265 342  
Since 1 July heating degree days 7031 7299  
Cooling Degree Days 0 0  
Month to date cooling degree days 16 0  
Year to date cooling degree days 16 0  
Growing Degree Days 14 (Base 50)    
Moisture  
Dew Point 44 °F    
Average Humidity 56    
Maximum Humidity 100    
Minimum Humidity 12    
Precipitation  
Precipitation 0.00 in 0.07 in 0.37 in (2001)
Month to date precipitation 1.36 2.17  
Year to date precipitation 4.18 5.32  
Sea Level Pressure  
Sea Level Pressure 29.73 in    
Wind  
Wind Speed 12 mph (NW)    
Max Wind Speed 31 mph    
Max Gust Speed 39 mph    
Visibility 8 miles    
Events Fog    
T = Trace of Precipitation, MM = Missing Value Source: NWS Daily Summary

Daily Weather History Graph

Daily Weather History Graph

Search for Another Location

Airport:

Trip Planner

Search our weather history database for the weather conditions in past years. The results will help you decide how hot, cold, wet, or windy it might be!

Date:

Astronomy

May. 27, 2013 Rise Set
Actual Time 5:28 AM MDT 8:29 PM MDT
Civil Twilight 4:54 AM MDT 9:03 PM MDT
Nautical Twilight 4:11 AM MDT 9:46 PM MDT
Astronomical Twilight 3:20 AM MDT 10:37 PM MDT
Moon 11:08 PM MDT (5/27) 8:09 AM MDT (5/27)
Length of Visible Light 16h 08m
Length of Day
15h 00m
Waning Gibbous, 90% of the Moon is Illuminated
May 27
Waning Gibbous
May 31
Last Quarter
Jun 8
New
Jun 16
First Quarter
Jun 23
Full

Hourly Weather History & Observations

Time (MDT) Temp. Dew Point Humidity Pressure Visibility Wind Dir Wind Speed Gust Speed Precip Events Conditions
12:53 AM 59.0 °F 53.1 °F 81% 29.69 in 10.0 mi SE 10.4 mph - N/A   Clear
1:53 AM 57.0 °F 54.0 °F 89% 29.68 in 10.0 mi ESE 9.2 mph - N/A   Clear
2:53 AM 54.0 °F 52.0 °F 93% 29.69 in 9.0 mi Calm Calm - N/A   Clear
3:48 AM 53.6 °F 51.8 °F 94% 29.85 in 5.0 mi Calm Calm - N/A   Scattered Clouds
3:53 AM 54.0 °F 53.1 °F 97% 29.70 in 5.0 mi Variable 4.6 mph - N/A   Mostly Cloudy
4:41 AM 48.2 °F 46.4 °F 93% 29.85 in 10.0 mi WNW 4.6 mph - N/A   Mostly Cloudy
4:50 AM 48.2 °F 46.4 °F 93% 29.85 in 10.0 mi Calm Calm - N/A   Scattered Clouds
4:53 AM 48.9 °F 46.0 °F 90% 29.72 in 10.0 mi Calm Calm - N/A   Partly Cloudy
5:53 AM 48.9 °F 46.0 °F 90% 29.72 in 10.0 mi North 3.5 mph - N/A   Clear
6:31 AM 50.0 °F 48.2 °F 94% 29.86 in 10.0 mi WNW 10.4 mph - N/A   Scattered Clouds
6:37 AM 50.0 °F 48.2 °F 94% 29.86 in 2.5 mi NW 5.8 mph - N/A   Mostly Cloudy
6:40 AM 51.8 °F 50.0 °F 94% 29.86 in 0.8 mi NNW 5.8 mph - N/A   Mostly Cloudy
6:53 AM 51.1 °F 50.0 °F 96% 29.73 in 0.5 mi NW 5.8 mph - N/A Fog Fog
6:58 AM 51.8 °F 50.0 °F 94% 29.86 in 1.2 mi NW 8.1 mph - N/A   Mostly Cloudy
7:01 AM 51.8 °F 48.2 °F 88% 29.86 in 4.0 mi NW 9.2 mph - N/A   Mostly Cloudy
7:11 AM 53.6 °F 50.0 °F 88% 29.87 in 10.0 mi WNW 9.2 mph - N/A   Scattered Clouds
7:53 AM 57.0 °F 50.0 °F 77% 29.72 in 10.0 mi NNW 11.5 mph - N/A   Clear
8:53 AM 59.0 °F 51.1 °F 75% 29.74 in 10.0 mi WNW 11.5 mph - N/A   Clear
9:53 AM 64.0 °F 52.0 °F 65% 29.71 in 10.0 mi WNW 13.8 mph 18.4 mph N/A   Clear
10:45 AM 69.8 °F 53.6 °F 56% 29.84 in 10.0 mi WNW 9.2 mph - N/A   Mostly Cloudy
10:53 AM 71.1 °F 52.0 °F 51% 29.68 in 10.0 mi NW 15.0 mph 19.6 mph N/A   Scattered Clouds
11:53 AM 69.1 °F 48.9 °F 49% 29.68 in 10.0 mi WNW 12.7 mph 19.6 mph N/A   Clear
12:53 PM 71.1 °F 46.9 °F 42% 29.67 in 10.0 mi NW 11.5 mph 18.4 mph N/A   Clear
1:53 PM 77.0 °F 41.0 °F 28% 29.63 in 10.0 mi West 11.5 mph 19.6 mph N/A   Clear
2:53 PM 77.0 °F 30.9 °F 19% 29.61 in 10.0 mi SSW 9.2 mph 28.8 mph N/A   Partly Cloudy
3:53 PM 81.0 °F 24.1 °F 12% 29.59 in 10.0 mi West 24.2 mph 34.5 mph N/A   Partly Cloudy
4:53 PM 78.1 °F 21.9 °F 12% 29.60 in 10.0 mi West 19.6 mph 38.0 mph N/A   Clear
5:53 PM 77.0 °F 23.0 °F 13% 29.59 in 10.0 mi West 25.3 mph 36.8 mph N/A   Clear
6:53 PM 73.9 °F 24.1 °F 16% 29.59 in 10.0 mi WNW 23.0 mph 31.1 mph N/A   Partly Cloudy
7:53 PM 71.1 °F 23.0 °F 16% 29.61 in 10.0 mi NNE 20.7 mph 33.4 mph N/A   Clear
8:01 PM 66.2 °F 42.8 °F 43% 29.77 in 10.0 mi NNE 25.3 mph 35.7 mph N/A   Clear
8:53 PM 59.0 °F 44.1 °F 58% 29.68 in 10.0 mi NE 17.3 mph 25.3 mph N/A   Clear
9:53 PM 55.9 °F 43.0 °F 62% 29.72 in 10.0 mi NNE 13.8 mph 24.2 mph N/A   Clear
10:53 PM 54.0 °F 37.9 °F 55% 29.73 in 10.0 mi NNW 8.1 mph 18.4 mph N/A   Clear
11:53 PM 48.9 °F 37.9 °F 66% 29.75 in 10.0 mi West 5.8 mph - N/A   Clear